Time,TemperatureF,DewpointF,PressureIn,WindDirection,WindDirectionDegrees,WindSpeedMPH,WindSpeedGustMPH,Humidity,HourlyPrecipIn,Conditions,Clouds,dailyrainin,SoftwareType,DateUTC
2013-10-31 01:43:00,28.0,15.0,31.18,SSE,157,1.0,6.0,57,-99.99,,,0.13,,2013-10-31 05:43:00,
2013-10-31 01:52:00,28.0,15.0,31.18,SSE,157,1.0,6.0,57,-99.99,,,0.13,,2013-10-31 05:52:00,
2013-10-31 02:02:00,28.0,15.0,31.18,SSE,157,1.0,6.0,57,-99.99,,,0.13,,2013-10-31 06:02:00,
2013-10-31 09:42:00,31.0,-99.9,33.10,NE,45,5.0,12.0,0,-99.99,,,0.13,,2013-10-31 13:42:00,
2013-10-31 09:52:00,31.0,-99.9,33.10,NE,45,5.0,12.0,0,-99.99,,,0.13,,2013-10-31 13:52:00,
2013-10-31 10:02:00,31.0,-99.9,33.10,NE,45,5.0,12.0,0,-99.99,,,0.13,,2013-10-31 14:02:00,
2013-10-31 10:42:00,36.0,24.0,33.09,East,90,5.0,14.0,61,-99.99,,,0.13,,2013-10-31 14:42:00,
2013-10-31 10:52:00,36.0,24.0,33.09,East,90,5.0,14.0,61,-99.99,,,0.13,,2013-10-31 14:52:00,
2013-10-31 11:02:00,36.0,24.0,33.09,East,90,5.0,14.0,61,-99.99,,,0.13,,2013-10-31 15:02:00,
2013-10-31 12:43:00,39.0,34.0,31.56,East,90,7.0,24.0,81,-99.99,,,-99.99,,2013-10-31 16:43:00,
2013-10-31 12:53:00,39.0,34.0,31.56,East,90,7.0,24.0,81,-99.99,,,-99.99,,2013-10-31 16:53:00,
2013-10-31 13:03:00,39.0,34.0,31.56,East,90,7.0,24.0,81,-99.99,,,-99.99,,2013-10-31 17:03:00,
2013-10-31 13:43:00,41.0,36.0,31.40,SE,135,9.0,21.0,81,-99.99,,,-99.99,,2013-10-31 17:43:00,
2013-10-31 13:52:00,41.0,36.0,31.40,SE,135,9.0,21.0,81,-99.99,,,-99.99,,2013-10-31 17:52:00,
2013-10-31 14:02:00,41.0,36.0,31.40,SE,135,9.0,21.0,81,-99.99,,,-99.99,,2013-10-31 18:02:00,
2013-10-31 14:52:00,42.0,37.0,31.30,East,90,9.0,20.0,81,-99.99,,,-99.99,,2013-10-31 18:52:00,
2013-10-31 15:01:00,42.0,37.0,31.30,East,90,9.0,20.0,81,-99.99,,,-99.99,,2013-10-31 19:01:00,
2013-10-31 15:42:00,41.0,35.0,31.37,ESE,112,7.0,24.0,80,-99.99,,,-99.99,,2013-10-31 19:42:00,
2013-10-31 15:52:00,41.0,35.0,31.37,ESE,112,7.0,24.0,80,-99.99,,,-99.99,,2013-10-31 19:52:00,
2013-10-31 16:02:00,41.0,35.0,31.37,ESE,112,7.0,24.0,80,-99.99,,,-99.99,,2013-10-31 20:02:00,
2013-10-31 16:52:00,41.0,33.0,31.42,ENE,67,8.0,17.0,73,-99.99,,,-99.99,,2013-10-31 20:52:00,
2013-10-31 17:02:00,41.0,33.0,31.42,ENE,67,8.0,17.0,73,-99.99,,,-99.99,,2013-10-31 21:02:00,
2013-10-31 19:43:00,39.0,33.0,31.47,East,90,9.0,18.0,80,-99.99,,,-99.99,,2013-10-31 23:43:00,
2013-10-31 19:54:00,39.0,33.0,31.47,East,90,9.0,18.0,80,-99.99,,,-99.99,,2013-10-31 23:54:00,
2013-10-31 20:02:00,39.0,33.0,31.47,East,90,9.0,18.0,80,-99.99,,,-99.99,,2013-11-01 00:02:00,
2013-10-31 20:42:00,39.0,33.0,31.44,ENE,67,8.0,31.0,79,-99.99,,,-99.99,,2013-11-01 00:42:00,
2013-10-31 20:52:00,39.0,33.0,31.44,ENE,67,8.0,31.0,79,-99.99,,,-99.99,,2013-11-01 00:52:00,
2013-10-31 21:02:00,39.0,33.0,31.44,ENE,67,8.0,31.0,79,-99.99,,,-99.99,,2013-11-01 01:02:00,
2013-10-31 21:42:00,41.0,35.0,31.40,East,90,7.0,28.0,78,-99.99,,,-99.99,,2013-11-01 01:42:00,
2013-10-31 21:52:00,41.0,35.0,31.40,East,90,7.0,28.0,78,-99.99,,,-99.99,,2013-11-01 01:52:00,
2013-10-31 22:03:00,41.0,35.0,31.40,East,90,7.0,28.0,78,-99.99,,,-99.99,,2013-11-01 02:03:00,
2013-10-31 23:04:00,45.0,38.0,31.28,East,90,7.0,14.0,77,-99.99,,,-99.99,,2013-11-01 03:04:00,
2013-10-31 23:45:00,45.0,38.0,31.28,East,90,7.0,14.0,77,-99.99,,,-99.99,,2013-11-01 03:45:00,
2013-10-31 23:54:00,45.0,38.0,31.28,East,90,7.0,14.0,77,-99.99,,,-99.99,,2013-11-01 03:54:00,